SCP
0 0 0 0 0 0 0 0 0 0 0 0 1 1 1 1 1 1 1 2 2 2 3 4 5 4 3 3 4 5 6 6 5 5 4 3 2 2 2 1 1 2 3 3
0 0 0 0 0 0 0 1 0 0 0 1 1 1 1 0 0 1 1 1 2 2 3 4 5 4 3 3 4 5 5 5 5 4 4 3 2 1 1 1 1 2 2 3
0 0 0 0 0 0 0 0 0 0 0 1 1 1 1 0 0 0 1 1 1 2 2 4 4 4 3 3 4 5 5 4 4 4 4 3 2 1 1 1 1 1 1 2
0 0 0 0 0 0 0 0 0 0 0 1 1 1 1 0 0 0 0 1 1 1 2 3 3 3 3 4 4 5 4 3 4 4 3 3 2 1 1 1 1 1 1 1
0 0 0 0 0 0 0 0 0 0 0 0 1 1 0 0 0 0 0 0 1 1 2 2 3 3 3 4 5 5 4 4 3 3 3 2 2 1 1 1 1 1 1 1
0 0 0 0 0 0 0 1 0 0 0 0 0 0 0 0 0 0 0 0 0 1 1 2 3 3 4 4 5 5 5 4 4 3 2 2 1 1 1 1 1 1 1 1
0 0 0 0 1 1 0 1 1 0 0 0 0 0 0 0 0 0 0 0 0 0 1 2 2 3 3 4 4 5 5 5 4 3 2 2 1 1 1 0 0 1 1 1
0 0 0 0 0 0 0 0 0 0 0 0 0 0 0 0 0 0 0 0 0 0 0 1 1 2 3 3 4 5 5 5 4 3 2 2 1 1 1 0 0 0 0 0
0 0 0 0 0 0 0 0 0 0 0 0 0 0 0 0 0 0 1 1 1 0 0 0 1 2 2 3 3 4 5 4 4 3 2 1 1 1 0 0 0 0 0 0
0 0 0 0 0 0 0 0 0 0 0 0 0 0 0 0 0 1 1 1 1 0 0 0 1 1 2 2 3 4 4 4 4 3 2 1 1 0 0 0 0 0 0 0
0 0 0 0 0 0 0 0 0 0 0 0 0 0 0 0 0 1 1 1 0 0 0 0 1 1 2 2 2 3 4 4 3 3 2 1 0 0 0 0 0 0 0 0
0 0 0 0 0 0 0 0 0 0 0 0 0 0 0 0 0 1 1 0 0 0 0 0 1 1 1 1 2 2 3 3 3 2 1 1 0 0 0 0 0 0 0 0
0 0 0 0 0 0 0 0 0 0 0 0 0 0 0 0 0 0 0 0 0 0 0 0 1 1 1 1 1 2 3 3 3 2 1 1 0 0 0 0 0 0 0 0
0 0 0 0 0 0 0 0 0 0 0 0 0 0 0 0 0 0 0 1 1 1 1 1 1 1 0 0 1 1 2 3 3 2 1 0 0 0 0 0 0 0 0 0
0 0 0 0 0 0 0 0 0 0 0 0 0 0 0 0 0 0 0 1 1 1 1 1 1 0 0 0 0 1 2 2 2 1 1 0 0 0 0 0 0 0 0 0
0 0 0 0 0 0 0 0 0 0 0 0 0 0 0 0 0 0 1 1 1 1 1 1 0 0 0 0 0 1 2 2 2 1 0 0 0 0 0 0 0 0 0 0
0 0 0 0 0 0 0 0 0 0 0 0 0 0 0 0 0 0 1 1 1 1 0 0 0 0 0 0 0 1 2 2 2 1 0 0 0 0 0 0 0 0 0 0
0 0 0 0 0 0 0 0 0 0 0 0 0 0 0 0 0 0 0 0 0 0 0 0 0 0 0 0 0 1 1 1 1 0 0 0 0 0 0 0 0 0 0 0
0 0 0 0 0 0 0 0 0 0 0 0 0 0 0 0 0 0 0 0 0 0 0 0 0 0 0 0 0 0 1 1 0 0 0 0 0 0 0 0 0 0 0 0
0 0 0 0 0 0 0 0 0 0 0 0 0 0 0 0 0 0 0 0 0 0 0 0 0 0 0 0 0 0 0 0 0 0 0 0 0 0 0 0 0 0 0 0
0 0 0 0 0 0 0 0 0 0 0 0 0 0 0 0 0 0 0 0 0 0 0 0 0 0 0 0 0 0 0 0 0 0 0 0 0 0 0 0 0 0 0 0
0 0 0 0 0 0 0 0 0 0 0 0 0 0 0 0 0 0 0 0 0 0 0 0 0 0 0 0 0 0 0 0 0 0 0 0 0 0 0 0 0 0 0 0
0 0 0 0 0 0 0 0 0 0 0 0 0 0 0 0 0 0 0 0 0 0 0 0 0 0 0 0 0 0 0 0 0 0 0 0 0 0 0 0 0 0 0 0
0 0 0 0 0 0 0 0 0 0 0 0 0 0 0 0 0 0 0 0 0 0 0 0 0 0 0 0 0 0 0 0 0 0 0 0 0 0 0 0 0 0 0 0
0 0 0 0 0 0 0 0 0 0 0 0 0 0 0 0 0 0 0 0 0 0 0 0 0 0 0 0 0 0 0 0 0 0 0 0 0 0 0 0 0 0 0 0
0 0 0 0 0 0 0 0 0 0 0 0 0 0 0 0 0 0 0 0 0 0 0 0 0 0 0 0 0 0 0 0 0 0 0 0 0 0 0 0 0 0 0 0
Wind_Speed
1 2 4 6 6 6 5 6 7 6 4 5 8 10 9 6 6 6 5 5 5 6 4 3 3 3 3 3 3 3 4 5 4 4 3 3 2 2 2 1 2 3 4 4
2 3 6 4 4 4 5 6 7 6 4 4 6 9 9 7 7 7 7 7 6 5 3 3 2 3 3 4 3 4 4 5 4 3 3 2 2 1 1 2 1 2 3 3
4 4 3 3 3 4 5 6 6 5 3 2 3 6 5 3 2 3 4 6 6 7 7 5 4 3 3 3 4 3 4 5 4 4 3 3 2 1 1 1 1 1 2 3
2 4 2 3 4 4 5 5 5 5 3 3 2 5 5 3 3 4 6 6 7 6 6 5 4 4 4 4 3 3 3 3 4 5 5 5 3 3 2 2 2 2 2 3
3 2 2 4 5 4 4 3 3 3 3 3 2 3 7 1 4 6 6 7 7 6 6 6 5 4 4 3 3 3 3 3 3 4 5 5 3 2 2 2 2 2 2 2
4 3 3 4 3 3 2 0 1 1 1 4 4 4 6 4 6 4 4 4 4 4 4 4 3 3 3 3 3 2 3 2 2 4 5 5 5 4 3 3 3 2 1 1
4 3 1 1 0 1 1 3 2 2 1 4 2 3 7 5 4 4 4 4 3 3 4 4 3 3 3 3 3 3 4 3 2 3 4 5 5 5 5 4 4 3 2 2
1 4 2 1 2 2 2 3 4 3 3 3 1 5 7 3 2 2 3 3 2 2 3 4 4 4 4 4 4 4 4 3 3 3 3 3 4 3 3 3 3 3 3 2
2 5 3 1 0 2 2 2 2 3 0 2 4 5 7 3 3 2 2 1 2 2 2 2 3 3 4 4 4 5 4 4 3 3 3 3 3 3 3 2 2 2 1 1
3 3 4 3 1 2 2 3 2 3 2 3 4 3 4 4 4 2 2 3 3 1 1 1 2 2 2 3 3 4 4 4 4 3 3 2 2 2 3 2 3 2 2 2
2 2 4 2 1 2 1 1 1 2 2 3 2 6 4 4 3 3 4 3 3 2 2 2 2 2 2 2 3 3 4 3 3 3 3 2 2 2 2 2 3 3 3 3
1 2 2 4 1 0 1 2 3 3 3 2 2 7 3 3 3 3 3 3 3 3 2 2 2 1 1 2 2 3 3 3 3 3 3 2 2 2 2 2 3 3 3 3
2 3 1 4 3 2 1 1 1 2 2 2 3 8 4 3 3 3 3 4 3 2 2 1 1 1 1 2 2 3 3 3 3 2 3 3 3 3 3 3 3 3 3 3
4 3 4 6 4 2 2 2 1 3 3 4 7 8 8 7 6 5 4 4 3 3 2 1 2 2 2 2 2 2 2 3 3 3 3 3 3 3 3 3 3 3 3 3
3 2 3 4 2 2 3 4 4 6 6 6 7 7 10 8 6 5 4 3 3 3 3 2 2 3 2 2 1 2 2 2 3 3 3 2 2 2 3 2 3 3 3 3
2 2 0 3 1 2 3 6 7 7 6 7 8 11 9 7 4 4 3 3 3 3 3 3 3 3 2 2 2 1 1 2 2 3 3 2 2 2 2 2 2 3 3 2
1 2 1 3 2 3 6 8 9 6 6 6 10 11 5 5 4 4 4 3 4 4 3 3 2 2 2 2 2 2 2 1 2 2 3 2 2 2 2 2 2 2 3 3
4 3 2 0 3 5 7 1 5 6 7 7 8 7 6 6 5 4 2 3 4 3 3 3 2 2 2 1 1 1 1 1 2 2 2 2 2 2 2 2 2 2 2 2
3 5 3 2 2 8 7 2 3 4 8 6 9 9 7 4 3 4 3 3 4 3 3 3 2 2 1 1 1 1 1 1 2 2 2 2 3 3 2 2 2 2 2 1
2 3 4 3 3 7 6 2 2 2 6 4 5 7 4 1 1 5 4 2 2 2 2 1 1 0 0 1 1 2 1 2 2 2 2 2 2 3 3 3 2 2 2 2
2 2 3 4 5 10 6 2 3 3 6 4 3 3 2 3 4 4 4 3 2 2 2 1 1 1 1 1 1 1 1 2 2 1 2 2 2 2 2 2 2 2 2 2
7 6 5 5 5 10 3 5 6 7 3 2 2 2 2 4 3 3 3 3 3 3 2 1 1 1 1 1 1 1 1 1 0 1 2 2 2 2 2 3 2 2 2 2
7 8 7 10 10 4 4 5 4 2 3 3 2 3 2 3 3 3 2 3 3 3 3 1 1 1 2 1 1 2 1 1 1 2 1 1 1 1 2 2 2 2 2 2
5 2 3 6 10 6 6 5 4 3 4 4 3 3 2 3 3 3 3 3 3 3 2 1 0 1 2 2 1 1 1 1 2 2 1 1 2 2 2 2 2 2 2 2
5 4 4 7 8 6 6 6 6 5 3 3 3 2 3 2 3 3 3 3 3 3 3 1 1 1 2 2 1 0 1 2 2 1 1 1 2 2 2 1 1 1 2 3
7 9 8 8 6 5 5 4 3 4 4 4 3 3 3 3 4 3 3 3 3 3 2 2 2 2 2 1 1 1 0 2 2 1 1 1 1 1 1 1 1 1 2 3
Wind_Direction
78 114 209 221 219 232 227 229 244 249 238 214 230 249 259 244 223 227 226 217 215 221 217 189 174 161 160 162 162 172 166 156 149 151 153 155 166 165 168 166 159 157 152 150
62 233 233 230 237 247 240 245 248 264 255 233 242 259 258 238 221 212 216 217 212 211 203 185 164 165 178 178 174 172 178 164 160 163 163 157 147 152 165 156 160 164 162 161
192 238 222 215 240 252 246 228 232 246 293 267 261 275 260 256 228 220 223 222 208 204 200 192 175 178 177 183 174 180 182 172 163 149 129 115 101 93 92 167 167 175 182 176
246 259 213 222 243 224 244 230 232 234 253 270 203 263 270 234 246 234 229 219 212 207 196 191 182 182 186 183 159 164 171 164 161 151 152 157 164 174 196 196 181 182 192 187
260 251 221 233 244 218 229 240 227 212 208 278 231 223 271 234 247 246 234 219 213 206 196 192 187 190 186 172 160 158 144 148 162 162 163 166 174 176 171 171 169 182 200 185
258 264 237 232 250 224 234 36 77 72 116 260 232 198 263 221 220 237 237 216 204 200 194 192 188 180 171 152 150 152 155 165 162 173 174 176 178 173 173 179 188 185 188 183
308 288 284 218 56 356 84 101 37 355 331 255 186 201 251 244 222 221 230 221 198 190 187 193 189 181 176 169 169 175 174 186 184 184 187 186 187 181 188 192 191 188 193 202
299 291 292 350 169 194 203 159 164 203 236 286 241 235 259 275 268 232 235 223 189 194 195 195 195 190 190 192 187 185 186 189 188 192 194 188 188 184 202 205 194 197 201 198
194 268 311 304 287 142 150 187 196 140 340 276 267 289 304 329 328 291 259 242 219 220 210 201 200 200 196 195 197 194 190 188 194 196 191 190 182 181 193 198 183 185 178 169
161 267 295 301 48 22 136 153 104 131 172 261 284 271 269 308 302 289 260 252 243 223 228 221 211 207 204 202 201 189 186 187 189 184 191 193 182 178 180 181 180 171 164 162
130 172 305 3 169 195 102 109 128 133 166 174 251 269 238 245 271 265 253 251 242 237 235 235 231 220 203 194 198 190 183 180 183 186 185 180 185 163 160 180 183 174 165 165
145 131 264 254 263 230 172 170 155 167 233 196 198 269 301 271 278 271 273 280 269 246 251 250 235 210 199 199 196 191 185 185 194 184 175 172 177 169 170 180 180 174 170 168
141 121 20 344 344 3 316 263 187 149 134 178 202 265 320 333 318 299 293 296 290 277 287 285 250 219 220 220 207 203 190 189 190 177 174 172 179 179 182 192 178 171 168 163
121 139 179 203 225 196 245 256 190 147 187 221 231 258 295 307 307 310 308 301 299 288 284 286 279 265 248 235 217 207 203 189 179 175 182 186 187 183 182 189 182 175 171 170
109 181 230 252 255 203 225 235 213 210 219 222 252 252 271 284 285 288 287 301 312 311 311 295 280 275 270 265 249 219 207 193 179 174 184 203 194 177 175 175 179 173 175 179
92 164 217 280 259 248 267 249 231 232 238 248 270 272 272 284 286 290 283 282 287 286 288 291 291 289 272 245 237 228 224 208 177 175 188 191 175 167 169 175 176 170 173 174
145 140 138 271 317 358 272 232 210 216 219 211 238 256 288 296 282 267 264 263 262 268 273 281 283 281 268 245 219 217 217 194 172 179 183 179 172 168 173 178 168 174 179 172
158 145 153 292 43 245 250 198 200 220 242 225 247 271 274 274 288 293 275 250 264 273 278 285 284 286 283 262 253 221 190 165 169 179 179 174 171 166 167 174 176 173 175 174
173 154 142 142 234 273 285 247 184 208 268 234 239 264 282 313 337 314 295 256 251 262 266 268 266 265 271 247 198 149 162 164 170 176 177 178 173 172 176 184 188 182 162 169
68 106 131 146 194 244 256 233 194 149 282 265 230 251 276 40 324 289 323 324 304 300 288 281 282 261 232 245 143 138 183 180 191 195 188 183 174 174 187 187 187 181 164 174
111 102 169 188 227 263 259 223 137 175 256 302 247 246 223 214 234 279 323 338 333 325 314 306 295 268 255 230 133 151 187 216 213 176 160 165 166 174 181 168 169 166 164 155
177 174 190 169 204 253 205 145 187 227 278 280 267 261 245 257 282 304 322 333 338 337 333 332 328 304 299 226 154 169 218 241 142 139 145 157 162 168 160 155 164 164 161 158
204 196 189 196 218 248 189 213 237 253 266 271 259 265 253 263 280 296 306 314 319 317 317 322 300 306 313 286 179 186 234 161 128 123 140 156 151 149 155 158 162 162 171 175
251 208 204 250 260 257 249 256 264 251 249 264 260 258 241 253 277 291 291 299 308 313 310 309 288 293 303 316 310 205 208 162 142 149 166 153 151 153 154 163 170 177 186 188
229 178 214 255 272 295 266 241 249 256 260 275 284 262 241 244 273 275 280 287 294 302 302 300 259 263 284 306 315 337 167 147 132 144 163 156 152 152 147 151 181 213 225 215
196 186 193 233 231 219 257 263 243 237 247 250 261 276 268 236 252 265 268 274 280 285 294 299 296 284 288 302 311 319 188 156 145 141 133 134 136 141 141 131 61 330 262 258